Dewpoint
16 14 14 14 14 14 14 13 13 16 18 18 18 18 19 21 21 20 17 14 12 7 4 5 5 5 6 6 10 10 14 19 18 17 22 27 55 59 61 61 62 62 62 64 65 65 64 65 64 64 64 64 64 64 65 65 65 65 65 65 65 66 65 65 65 65 65 65 65 65 64 64 64 65 65 65 65 66 66 66 66 66 66 66 66 66
17 15 14 14 14 14 14 15 16 15 15 16 16 16 17 18 19 20 18 14 13 10 6 5 5 5 7 8 9 10 11 13 16 17 18 19 48 58 60 61 62 62 63 64 65 65 64 64 65 65 64 65 64 64 65 65 65 65 65 64 65 66 65 65 65 65 65 65 64 64 64 64 64 65 64 64 64 65 66 66 66 66 66 65 65 65
17 14 14 14 15 16 16 13 13 14 14 14 14 15 15 16 18 18 19 18 13 11 10 5 4 5 7 9 9 10 9 11 15 19 18 18 25 50 58 61 61 62 63 64 64 65 64 64 65 65 64 64 64 65 65 65 65 65 65 64 65 65 65 65 65 65 65 65 65 65 64 65 64 64 64 65 65 66 65 65 65 66 65 65 65 65
16 14 15 16 17 15 14 13 12 11 12 14 15 14 13 14 16 17 18 18 16 13 11 10 6 7 9 10 12 12 9 11 20 28 28 25 18 30 52 60 61 62 63 63 64 64 64 64 64 65 64 64 65 65 65 65 64 65 64 64 65 65 65 65 65 65 65 65 65 65 65 65 65 64 65 65 65 65 65 65 65 65 65 65 65 65
14 15 14 14 16 15 14 14 12 12 11 12 12 13 12 12 13 16 17 17 16 14 11 8 9 11 8 8 9 11 15 17 18 25 29 28 29 24 45 60 62 62 63 63 64 64 64 63 64 64 65 65 64 64 64 64 64 65 64 64 65 65 65 65 65 65 66 66 65 65 65 65 65 65 64 64 64 64 65 65 65 65 65 65 65 64
15 15 15 13 12 14 14 13 12 11 10 10 10 11 12 12 11 13 16 16 18 16 11 8 6 6 10 9 8 9 12 14 15 13 17 22 25 30 39 57 61 62 63 63 64 64 64 63 64 64 65 64 64 64 64 64 64 64 64 64 65 65 65 65 65 65 65 65 64 64 64 63 63 63 62 63 63 64 64 64 65 65 65 65 64 64
14 16 15 13 13 12 12 13 13 11 10 10 9 11 12 12 12 11 12 14 15 14 12 10 6 9 19 11 11 11 9 11 14 14 13 15 22 29 36 55 61 62 62 63 64 64 63 63 64 64 64 64 64 64 64 64 64 64 63 64 65 65 65 66 65 65 65 64 64 64 64 63 63 63 62 62 64 65 63 64 65 64 64 64 64 64
13 18 15 15 13 12 11 9 11 11 9 8 9 11 14 13 13 12 11 11 14 17 16 15 10 6 9 10 12 12 11 11 12 13 14 15 16 26 31 48 60 62 62 63 64 64 63 63 64 64 64 64 64 64 64 64 64 63 63 63 65 65 65 65 65 65 65 64 64 63 63 63 63 63 62 64 64 64 64 64 64 64 63 63 64 64
16 15 12 12 12 11 10 9 8 9 8 8 9 9 10 13 14 14 12 10 12 15 14 15 15 7 5 12 15 12 11 11 12 13 13 14 14 16 30 42 59 61 62 63 63 63 63 63 64 64 64 64 64 64 63 63 63 63 63 63 64 64 65 65 65 65 64 64 64 63 63 63 62 63 63 64 64 63 63 63 62 62 62 62 62 62
17 13 11 11 9 8 9 9 9 8 6 7 8 10 11 13 14 15 13 9 10 14 14 14 15 9 4 17 14 14 9 11 12 13 14 14 14 14 26 44 58 61 62 63 63 63 63 63 64 64 64 64 64 64 64 63 63 63 63 63 64 64 64 65 65 65 64 64 63 63 63 63 63 63 63 63 63 62 62 61 61 60 60 61 60 60
22 23 26 12 8 10 11 12 12 11 10 10 8 7 7 8 11 15 17 12 12 13 13 14 14 13 8 14 10 14 13 11 12 13 15 15 14 15 23 48 58 61 61 62 63 63 63 64 64 64 64 64 64 64 63 63 63 63 63 63 63 64 64 64 65 65 64 64 63 63 63 63 63 63 63 63 62 62 61 61 60 60 59 59 59 59
21 19 16 13 16 15 18 19 21 21 21 15 9 9 10 11 14 15 16 15 11 10 10 12 13 14 12 12 12 11 15 13 13 12 13 14 16 16 23 50 58 61 61 62 63 63 63 64 64 64 64 64 63 63 63 63 63 63 63 63 63 64 64 64 65 65 64 64 63 63 63 63 63 63 63 63 62 62 61 60 60 59 59 59 58 57
13 13 13 11 25 14 16 15 16 18 19 18 13 11 11 13 13 13 13 13 12 8 10 12 13 12 12 13 16 15 13 13 13 11 12 13 14 19 26 50 58 60 61 62 62 63 63 64 64 64 63 63 63 63 63 63 63 63 63 63 63 63 64 64 64 64 64 64 63 63 63 63 63 63 63 62 62 61 61 60 60 59 59 58 56 56
12 14 10 9 9 21 17 15 15 14 16 18 16 12 10 10 11 9 11 11 10 9 10 11 14 12 13 14 15 15 16 13 13 14 13 11 15 20 31 51 58 60 61 62 62 63 63 64 64 64 63 63 63 63 63 63 63 63 63 63 62 63 64 64 64 64 64 63 63 63 63 63 63 63 62 62 62 61 61 61 60 59 59 57 56 56
7 10 10 11 11 13 16 16 16 16 17 16 17 13 11 11 12 9 9 8 8 9 10 11 11 15 12 14 16 16 17 14 13 13 14 15 15 23 38 52 58 60 61 62 62 63 63 64 64 63 63 63 63 63 63 63 63 63 63 63 62 63 64 64 64 64 64 63 63 63 63 63 63 62 62 62 62 61 61 60 60 59 59 58 57 56
13 12 18 15 13 13 11 15 17 17 18 19 17 16 13 12 15 13 14 11 12 11 13 13 17 19 13 23 20 15 14 14 16 15 17 17 21 27 46 54 57 59 60 61 62 63 64 64 64 64 64 63 63 63 63 63 63 63 63 63 63 63 64 64 64 64 63 63 63 63 63 63 62 62 62 61 61 61 61 60 60 59 58 57 56 55
18 15 18 20 20 16 14 15 15 17 16 17 18 17 15 14 13 18 18 23 19 13 14 18 17 15 16 15 16 16 13 12 14 15 15 17 24 39 50 55 57 59 60 61 62 63 63 64 64 64 64 64 64 63 63 64 64 64 63 64 63 64 64 64 64 64 63 63 62 62 62 62 62 61 61 61 61 61 60 60 59 59 58 56 56 55
21 20 28 24 22 22 21 17 15 17 18 26 16 16 19 18 15 17 13 15 15 14 14 18 12 11 11 14 19 13 12 12 13 14 14 21 28 45 52 56 58 59 60 61 62 63 64 64 64 64 64 64 64 64 64 64 64 64 64 64 64 64 64 64 64 64 63 62 62 62 62 62 61 61 61 61 61 61 60 60 60 59 57 56 55 54
23 16 16 18 18 18 22 22 16 17 19 19 24 27 21 19 16 18 16 14 12 11 10 11 12 11 8 12 18 13 12 12 15 15 15 19 30 44 52 56 58 59 60 61 62 63 63 64 64 64 64 64 64 64 64 64 64 64 64 64 64 64 64 63 64 64 63 63 62 62 62 62 61 61 61 61 61 61 60 60 59 58 57 56 55 54
28 21 21 30 29 26 26 22 22 17 19 19 19 23 34 30 25 18 19 14 16 14 9 11 11 11 8 8 15 12 14 14 14 16 16 21 32 44 51 56 58 59 60 61 61 62 63 63 64 64 64 64 64 64 64 64 64 64 64 64 64 64 64 64 64 64 63 63 63 62 62 61 61 61 61 61 60 60 60 59 59 57 56 55 55 53
29 31 21 28 36 32 24 21 21 23 20 19 20 20 27 26 27 21 25 14 13 14 13 11 9 13 19 19 14 12 14 14 16 19 21 26 36 46 51 55 58 59 60 60 61 62 63 63 64 64 64 64 64 64 64 64 64 64 64 63 64 64 64 63 64 64 64 64 63 62 62 62 61 61 61 60 60 60 59 59 58 57 56 55 53 53
29 30 23 26 28 27 25 24 21 24 24 25 24 23 24 24 22 18 19 20 15 13 15 11 12 19 21 20 18 12 14 15 18 18 24 30 39 48 52 55 57 59 60 60 61 62 63 63 63 63 64 64 64 64 64 64 64 63 63 63 64 64 64 63 64 63 63 64 63 62 62 62 61 61 60 59 59 59 59 58 57 56 55 53 53 52
32 33 30 26 27 28 29 28 26 29 28 28 24 26 30 25 22 19 17 23 20 10 17 21 14 16 19 25 24 18 16 16 20 20 26 32 41 49 53 55 58 59 60 60 61 62 63 63 63 63 63 63 63 63 63 63 63 63 63 63 63 64 63 63 64 63 63 64 63 63 62 62 61 60 60 59 59 58 58 57 55 55 54 53 52 52
36 30 27 27 30 30 35 38 36 37 33 31 27 28 26 24 23 21 19 21 18 18 15 12 9 21 26 32 28 24 26 21 22 22 27 33 43 50 52 55 58 59 60 61 61 62 62 63 63 63 63 63 63 63 63 63 63 63 63 63 63 63 63 64 64 63 63 63 63 63 62 61 60 60 59 59 58 57 56 55 55 54 53 52 52 51
30 32 30 24 19 23 27 31 34 38 32 31 28 28 26 24 23 23 21 23 20 20 16 14 11 14 28 38 36 30 29 22 24 26 29 36 45 50 53 55 58 59 60 60 61 61 62 62 62 62 62 62 62 63 63 63 63 63 62 62 63 63 63 64 64 63 63 63 62 62 61 61 60 59 59 58 57 56 55 54 54 54 53 52 51 50
32 32 29 20 16 11 14 17 21 24 26 29 28 26 26 25 25 24 21 24 20 25 22 15 14 20 27 30 32 32 28 23 25 29 33 40 48 52 54 56 58 59 59 60 61 61 61 62 62 62 62 62 62 62 62 63 63 63 62 62 63 63 63 64 64 63 63 63 62 61 61 60 59 59 58 57 57 56 55 54 53 53 52 51 51 50
34 36 33 30 26 23 26 27 31 32 30 23 24 25 26 27 25 24 24 22 21 23 25 24 19 18 26 33 32 31 29 27 31 34 37 45 50 53 54 56 57 58 59 60 60 61 61 61 61 62 62 62 62 62 62 62 62 62 62 62 63 63 63 63 63 63 63 62 61 61 60 60 59 58 58 57 56 55 54 54 53 53 52 52 51 50
37 30 31 32 31 29 29 30 34 33 27 27 25 27 29 27 26 25 23 21 25 25 23 29 36 30 28 38 41 37 30 32 34 36 41 48 52 53 55 56 56 58 59 60 60 61 61 61 61 61 61 62 62 62 62 62 62 62 62 62 63 63 63 64 63 63 62 62 61 60 60 60 59 58 57 57 56 55 54 53 53 52 52 52 50 50
33 26 32 33 31 32 33 31 32 31 30 29 29 30 28 27 27 27 25 26 32 26 24 29 37 35 37 40 42 43 45 34 35 39 45 50 52 54 55 56 57 58 59 59 60 60 61 61 61 61 61 62 62 62 62 62 62 62 62 62 63 64 63 63 63 63 62 61 61 60 60 59 59 58 57 56 55 54 53 53 53 52 52 51 50 50
32 27 33 33 31 31 30 30 32 31 28 27 29 32 29 30 30 29 29 28 27 29 35 37 37 37 40 40 42 45 46 42 39 43 48 51 53 55 56 56 57 58 59 59 60 60 60 61 61 61 61 61 61 62 62 61 61 61 61 62 63 63 64 63 63 62 62 61 60 60 60 59 58 57 56 55 55 54 53 53 52 52 51 50 49 49
34 27 36 34 29 29 32 33 32 32 27 27 27 27 27 29 28 27 30 29 33 31 32 37 37 36 39 41 43 47 45 46 47 48 50 52 54 55 56 56 57 58 59 59 60 60 60 60 60 61 61 61 61 61 61 61 61 61 61 62 63 63 63 63 63 62 61 61 60 60 59 58 57 57 56 55 54 54 53 52 52 51 51 50 49 49
34 27 34 31 26 27 32 32 32 34 28 28 29 29 28 30 27 29 26 34 33 32 34 36 33 35 39 41 46 46 47 47 48 49 51 53 55 55 56 56 57 58 59 59 60 60 60 60 60 60 61 61 61 61 61 61 62 61 61 62 63 63 63 63 62 61 61 60 60 60 59 58 57 56 55 55 54 53 53 52 51 51 50 49 49 48
35 32 27 28 25 23 30 33 33 28 27 22 23 27 29 29 29 30 32 37 39 39 35 29 37 40 41 42 46 47 47 48 49 50 52 54 55 55 56 56 57 58 59 59 60 60 60 60 60 60 61 61 61 61 61 61 62 61 61 62 63 63 63 62 62 61 61 60 60 59 58 57 56 55 55 54 54 53 52 51 51 50 49 49 48 48
36 32 30 32 26 27 30 32 31 25 18 20 31 35 31 30 31 31 34 34 37 41 40 39 43 42 42 45 47 46 47 47 49 49 51 54 55 55 56 57 57 58 59 59 60 60 60 60 60 60 61 61 61 61 61 61 62 62 62 62 63 62 62 62 61 61 60 60 59 58 57 57 56 55 54 54 54 53 52 51 50 50 49 49 48 47
35 31 29 33 27 28 31 28 22 13 18 27 32 34 35 34 35 32 32 29 34 39 42 42 44 44 44 46 48 49 48 50 51 50 50 52 55 55 56 56 57 58 58 59 60 60 60 60 60 60 60 60 61 61 61 61 62 62 62 62 62 62 61 61 61 60 60 59 59 58 57 56 55 55 54 54 53 52 51 50 50 49 49 48 47 46
30 29 29 28 29 29 28 25 10 14 26 32 34 38 37 34 34 34 31 32 36 38 42 42 44 43 44 48 49 49 50 50 51 52 52 52 53 56 56 56 57 58 58 59 59 60 60 60 60 60 60 60 61 61 61 61 62 62 62 62 62 61 61 61 60 59 59 59 58 57 57 56 55 55 54 54 53 52 51 50 50 49 49 48 47 46
37 36 30 28 31 26 25 23 23 29 29 29 26 28 23 26 29 30 26 29 37 38 39 44 42 41 45 48 49 48 48 48 48 49 51 52 52 54 56 57 57 58 58 59 59 60 60 61 60 60 60 60 61 61 61 62 62 62 61 61 61 61 60 60 59 59 59 58 57 57 56 56 55 54 54 54 53 52 51 50 50 49 49 47 46 45
36 32 35 32 29 28 26 26 26 23 19 27 34 36 37 37 38 37 29 26 35 37 38 41 41 40 45 47 47 47 47 44 44 45 48 51 52 53 53 55 56 58 58 59 59 59 60 61 61 60 61 60 60 61 61 62 62 61 61 61 61 60 60 59 59 59 58 58 57 56 56 55 55 54 54 53 52 52 51 50 50 49 48 47 46 45
39 39 36 31 28 27 26 25 24 20 23 30 31 39 43 44 45 43 28 27 31 36 36 35 40 43 45 45 45 45 45 41 41 44 48 50 52 52 52 53 56 57 57 58 58 59 60 61 61 60 60 60 60 60 61 62 61 61 60 60 60 60 60 59 59 58 58 57 57 56 56 55 55 54 53 53 52 52 51 50 49 49 48 47 46 45
36 31 30 29 28 27 25 27 26 24 25 32 42 45 45 46 46 25 19 22 33 37 44 42 41 43 44 45 45 42 41 38 42 45 51 52 52 53 52 52 54 56 56 57 59 60 61 60 60 60 60 60 60 61 61 61 61 60 60 60 60 60 59 59 59 58 58 57 56 56 55 55 54 54 53 53 52 52 51 50 49 48 47 47 46 45
30 30 30 28 27 28 28 25 25 28 32 41 45 45 45 46 31 21 19 28 33 43 45 42 43 45 46 47 45 45 45 45 48 51 54 55 56 56 57 57 54 56 57 58 59 57 61 61 61 60 60 60 61 61 61 61 61 60 60 60 60 59 59 59 59 58 58 57 57 56 55 55 54 54 53 53 52 52 51 50 49 48 48 47 46 45
29 30 29 27 27 27 25 26 27 29 33 45 46 46 46 32 16 23 29 34 41 46 48 47 47 47 48 51 51 51 51 52 53 54 55 56 56 57 58 58 58 58 58 57 57 59 61 61 60 60 60 61 61 61 61 61 60 59 59 59 59 59 59 59 59 58 58 57 56 56 55 55 54 54 54 53 52 52 51 51 49 48 48 47 46 45
34 31 29 27 29 29 28 24 24 23 29 45 47 43 44 30 27 40 46 48 49 49 50 50 50 50 52 51 50 51 52 52 53 54 55 56 56 56 57 57 57 57 58 58 58 59 61 60 60 60 60 61 61 61 61 60 59 59 59 59 59 59 60 59 58 58 57 56 56 55 55 54 54 53 54 53 52 52 51 51 49 49 48 47 45 45
39 31 31 31 35 31 28 25 27 35 42 46 47 39 46 47 48 48 48 47 49 50 50 50 51 51 52 52 51 50 51 51 52 53 54 55 56 57 57 57 57 57 57 58 58 57 57 60 60 60 60 61 61 61 61 60 59 58 59 59 59 59 59 58 58 57 56 55 55 55 54 54 53 54 53 53 53 53 51 50 50 49 48 48 47 45
40 35 36 33 39 36 31 32 39 42 44 47 48 48 49 49 50 50 49 49 49 51 50 51 52 52 52 52 51 51 51 51 52 53 54 54 55 56 56 56 56 57 57 56 56 56 57 57 57 58 59 60 60 61 60 60 59 57 58 57 58 58 58 57 57 56 55 54 54 53 53 53 53 53 53 53 53 52 51 50 49 48 48 47 46 45
43 44 42 39 38 43 44 44 45 44 46 47 48 48 49 50 51 51 50 49 49 49 50 51 52 53 52 51 52 51 51 52 52 52 53 54 54 55 55 56 55 54 55 56 56 57 58 58 58 57 57 59 60 60 60 60 59 57 57 57 57 57 56 56 55 55 54 54 53 53 53 52 53 53 52 52 52 52 50 49 48 47 47 47 46 45
44 45 43 38 41 38 33 41 43 45 47 48 48 49 50 51 51 51 50 51 51 50 51 52 51 51 52 52 52 52 52 53 53 54 54 54 54 54 55 55 55 56 57 57 57 56 57 57 57 57 57 58 59 59 59 59 59 58 57 56 56 55 55 55 54 53 53 53 53 53 53 52 52 52 52 52 52 51 50 49 49 48 47 47 47 46
38 45 41 40 41 35 35 42 45 47 48 48 48 48 49 50 50 51 52 52 52 52 50 51 52 52 53 52 52 52 52 53 54 54 54 54 54 54 54 55 55 56 56 57 57 57 57 57 57 58 58 58 58 58 58 58 58 57 57 56 55 54 54 53 53 53 53 53 53 52 52 52 46 50 51 51 51 50 50 50 49 48 47 46 46 46
43 44 36 41 37 40 43 46 47 47 47 47 48 48 49 50 50 50 51 52 52 52 52 52 52 52 53 52 52 53 52 52 53 54 55 55 54 54 54 55 55 56 56 57 57 57 58 58 57 58 58 58 58 58 58 57 56 56 56 55 55 54 53 52 51 52 52 52 52 52 52 52 51 51 51 51 50 50 50 49 48 48 47 47 47 46
43 37 42 39 34 33 37 43 46 38 37 46 47 48 50 51 51 51 51 51 51 51 51 52 52 53 52 53 53 53 53 54 54 55 55 55 55 54 54 55 55 55 56 57 57 58 58 57 57 57 57 58 58 58 57 56 55 55 55 55 54 54 52 51 52 52 52 52 52 51 51 51 51 51 50 50 49 46 43 36 39 45 47 46 43 42
42 43 41 36 35 34 43 47 48 47 46 47 47 50 51 51 51 50 50 50 51 52 52 52 52 52 53 53 54 54 53 54 54 54 54 54 53 53 53 54 55 55 57 57 57 57 57 57 57 57 57 58 57 57 57 56 55 54 54 54 54 53 52 52 51 51 51 51 51 50 51 51 51 51 51 51 48 46 44 42 40 36 35 38 41 40